This is the latest recevied weather packets stored in our database for station/object KD2RHT-13. If no packets are shown the sender has not sent any weather packets the latest 10 day(s).
| Time | Temp. | Humidity | Pressure | Rain* | Wind** | Luminosity | Snow |
|---|---|---|---|---|---|---|---|
| 1777681076 | 6.11° C | 93% | 1014.2 hPa | 1.27 mm | - | 0 W/m² | - |
| 1777680774 | 6.11° C | 92% | 1014.2 hPa | 1.78 mm | - | 0 W/m² | - |
| 1777680471 | 6.67° C | 91% | 1014.2 hPa | 1.78 mm | - | 0 W/m² | - |
| 1777680170 | 6.67° C | 90% | 1013.9 hPa | 0 mm | - | 0 W/m² | - |
| 1777679865 | 6.67° C | 88% | 1013.9 hPa | 0 mm | - | 0 W/m² | - |
| 1777679561 | 6.67° C | 86% | 1013.9 hPa | 1.78 mm | - | 0 W/m² | - |
| 1777679256 | 7.22° C | 82% | 1013.9 hPa | 0 mm | - | 2 W/m² | - |
| 1777678953 | 7.78° C | 82% | 1013.5 hPa | 0 mm | - | 3 W/m² | - |
| 1777678652 | 7.78° C | 80% | 1013.9 hPa | 0 mm | - | 2 W/m² | - |
| 1777678350 | 7.78° C | 79% | 1013.9 hPa | 0 mm | - | 3 W/m² | - |
| 1777678050 | 7.78° C | 78% | 1013.5 hPa | 0 mm | - | 5 W/m² | - |
| 1777677747 | 7.78° C | 79% | 1013.5 hPa | 0 mm | - | 6 W/m² | - |
| 1777677445 | 7.78° C | 78% | 1013.5 hPa | 0 mm | - | 9 W/m² | - |
| 1777677143 | 7.78° C | 77% | 1013.9 hPa | 0 mm | - | 13 W/m² | - |
| 1777676841 | 8.33° C | 77% | 1013.5 hPa | 0 mm | - | 24 W/m² | - |
| 1777676540 | 8.33° C | 78% | 1013.5 hPa | 0 mm | - | 23 W/m² | - |
| 1777676237 | 8.89° C | 76% | 1013.5 hPa | 0 mm | - | 26 W/m² | - |
| 1777675933 | 8.89° C | 75% | 1013.5 hPa | 0 mm | - | 35 W/m² | - |
| 1777675629 | 8.89° C | 72% | 1013.5 hPa | 0 mm | - | 38 W/m² | - |
| 1777675327 | 9.44° C | 69% | 1013.1 hPa | 0 mm | - | 42 W/m² | - |
| 1777675023 | 8.89° C | 68% | 1013.1 hPa | 0 mm | - | 41 W/m² | - |
| 1777674720 | 9.44° C | 65% | 1013.5 hPa | 0 mm | - | 43 W/m² | - |
| 1777674416 | 9.44° C | 65% | 1013.5 hPa | 0 mm | - | 35 W/m² | - |
| 1777674114 | 9.44° C | 64% | 1013.1 hPa | 0 mm | - | 35 W/m² | - |
| 1777673810 | 9.44° C | 65% | 1013.1 hPa | 0 mm | - | 32 W/m² | - |
* Rain latest hour (hover to see other rain measurements)
** Current wind speed in m/s (hover to see current wind gust speed)